SCP
0 0 0 0 0 0 0 0 0 0 0 0 0 0 0 0 0 0 0 0 0 0 0 0 0 1 1 1 1 1 2 2 2 2 2 1 1 1
0 0 0 0 0 0 0 0 0 0 0 0 0 0 0 0 0 0 0 0 0 0 0 0 0 0 1 1 1 1 1 1 1 1 1 1 1 1
0 0 0 0 0 0 0 0 0 0 0 0 0 0 0 0 0 0 0 0 0 0 0 0 0 0 0 0 0 0 1 1 1 1 1 1 1 1
0 0 0 0 0 0 0 0 0 0 0 0 0 0 0 0 0 0 0 0 0 0 0 0 0 0 0 0 0 0 0 0 0 0 0 0 1 1
0 0 0 0 0 0 0 0 0 0 0 0 0 0 0 0 0 0 0 0 0 0 0 0 0 0 0 0 0 0 0 0 0 0 0 0 0 0
0 0 0 0 0 0 0 0 0 0 0 0 0 0 0 0 0 0 0 0 0 0 0 0 0 0 0 0 0 0 0 0 0 0 0 0 0 0
0 0 0 0 0 0 0 0 0 0 0 0 0 0 0 0 0 0 0 0 0 0 0 0 0 0 0 0 0 0 0 0 0 0 0 0 0 0
0 0 0 0 0 0 0 0 0 0 0 0 0 0 0 0 0 0 0 0 0 0 0 0 0 0 0 0 0 0 0 0 0 0 0 0 0 0
0 0 0 0 0 0 0 0 0 0 0 0 0 0 0 0 0 0 0 0 0 0 0 0 0 0 0 0 0 0 0 0 0 0 0 0 0 0
0 0 0 0 0 0 0 0 0 0 0 0 0 0 0 0 0 0 0 0 0 0 0 0 0 0 0 0 0 0 0 0 0 0 0 0 0 0
0 0 0 0 0 0 0 0 0 0 0 0 0 0 0 0 0 0 0 0 0 0 0 0 0 0 0 0 0 0 0 0 0 0 0 0 0 0
0 0 0 0 0 0 0 0 0 0 0 0 0 0 0 0 0 0 0 0 0 0 0 0 0 0 0 0 0 0 0 0 0 0 0 0 0 0
0 0 0 0 0 0 0 0 0 0 0 0 0 0 0 0 0 0 0 0 0 0 0 0 0 0 0 0 0 0 0 0 0 0 0 0 0 0
0 0 0 0 0 0 0 0 0 0 0 0 0 0 0 0 0 0 0 0 0 0 0 0 0 0 0 0 0 0 0 0 0 0 0 0 0 0
0 0 0 0 0 0 0 0 0 0 0 0 0 0 0 0 0 0 0 0 0 0 0 0 0 0 0 0 0 0 0 0 0 0 0 0 0 0
0 0 0 0 0 0 0 0 0 0 0 0 0 0 0 0 0 0 0 0 0 0 0 0 0 0 0 0 0 0 0 0 0 0 0 0 0 0
0 0 0 0 0 0 0 0 0 0 0 0 0 0 0 0 0 0 0 0 0 0 0 0 0 0 0 0 0 0 0 0 0 0 0 0 0 0
0 0 0 0 0 0 0 0 0 0 0 0 0 0 0 0 0 0 0 0 0 0 0 0 0 0 0 0 0 0 0 0 0 0 0 0 0 0
0 0 0 0 0 0 0 0 0 0 0 0 0 0 0 0 0 0 0 0 0 0 0 0 0 0 0 0 0 0 0 0 0 0 0 0 0 0
0 0 0 0 0 0 0 0 0 0 0 0 0 0 0 0 0 0 0 0 0 0 0 0 0 0 0 0 0 0 0 0 0 0 0 0 0 0
0 0 0 0 0 0 0 0 0 0 0 0 0 0 0 0 0 0 0 0 0 0 0 0 0 0 0 0 0 0 0 0 0 0 0 0 0 0
0 0 0 0 0 0 0 0 0 0 0 0 0 0 0 0 0 0 0 0 0 0 0 0 0 0 0 0 0 0 0 0 0 0 0 0 0 0
0 0 0 0 0 0 0 0 0 0 0 0 0 0 0 0 0 0 0 0 0 0 0 0 0 0 0 0 0 0 0 0 0 0 0 0 0 0
Wind_Speed
3 3 3 3 2 2 3 3 3 2 3 4 3 4 3 3 5 3 4 7 9 9 11 11 12 12 13 14 16 18 19 21 22 22 22 23 23 23
3 4 4 3 3 3 3 3 3 4 3 3 3 4 4 5 6 4 5 9 10 10 10 11 12 13 13 14 15 16 18 20 21 22 22 22 22 22
5 5 6 5 4 3 3 3 3 3 4 4 3 3 4 5 6 4 5 5 5 11 11 12 12 13 14 14 15 16 17 18 20 22 23 23 22 22
6 6 6 5 5 4 3 4 4 4 4 5 3 3 4 5 5 6 5 5 5 9 12 13 13 14 14 14 15 16 16 17 18 20 21 22 23 23
6 6 6 5 6 4 5 5 4 4 4 4 4 3 3 3 4 5 5 4 5 7 10 11 12 13 13 14 15 15 16 16 17 18 19 20 21 22
6 6 6 6 7 6 5 6 5 4 4 4 4 3 3 4 2 3 4 3 4 5 6 6 8 10 12 13 14 15 15 16 17 18 18 19 19 20
5 6 6 9 10 8 6 6 6 5 4 4 4 3 3 3 3 2 3 4 4 3 3 3 3 4 5 9 12 14 15 16 16 17 17 18 18 19
6 6 7 8 10 12 12 11 10 8 7 5 5 5 6 5 4 3 3 2 4 3 2 4 3 5 5 5 9 13 14 15 16 17 17 17 18 18
7 6 6 7 8 6 8 10 10 13 13 8 7 8 7 6 5 4 4 4 5 4 2 5 3 5 5 6 11 12 13 14 15 16 17 17 18 18
8 8 7 8 8 8 7 7 7 8 9 8 8 9 9 7 7 6 6 5 5 4 3 4 4 5 5 5 10 12 12 13 14 15 16 16 17 18
8 8 8 8 12 13 8 8 8 8 10 13 13 13 13 13 9 4 4 3 5 4 3 4 4 4 4 5 6 10 11 11 12 13 14 14 15 15
7 8 12 12 13 12 8 8 9 9 7 6 7 8 8 9 11 8 6 6 5 5 4 4 3 2 4 3 3 3 4 7 10 12 13 13 13 10
7 7 7 12 13 12 10 8 11 9 5 6 5 5 5 5 6 6 7 7 7 7 5 4 3 2 3 3 3 3 3 3 3 6 9 12 13 12
8 7 7 12 13 12 8 9 12 8 4 4 5 6 6 6 6 6 8 9 9 11 8 6 5 5 4 4 4 3 3 3 4 4 4 7 10 13
9 11 11 12 11 9 11 12 9 5 4 5 7 8 7 7 6 5 6 7 8 10 9 8 7 6 5 5 5 4 3 3 4 5 5 5 6 6
8 9 10 11 9 9 9 8 6 6 7 8 7 7 5 5 5 5 5 4 4 5 7 8 9 9 7 7 6 6 5 4 3 4 4 4 5 6
5 3 3 3 4 5 5 6 6 6 7 8 7 7 6 6 7 5 5 4 5 5 5 4 5 7 8 7 6 6 6 5 4 4 4 5 5 6
6 4 5 6 7 7 7 7 6 7 8 8 7 7 7 7 7 5 5 5 6 6 6 5 3 2 3 5 9 7 6 6 5 5 5 5 5 5
6 6 6 7 7 7 7 7 8 7 7 7 8 8 8 7 7 7 6 6 6 6 6 5 5 5 6 6 5 9 7 5 5 5 6 5 5 5
6 7 8 8 7 7 8 8 7 6 6 7 7 7 7 7 7 7 7 7 7 6 6 5 6 7 8 7 5 4 9 7 6 6 5 3 2 2
8 8 8 8 8 8 7 7 7 7 7 6 7 8 7 7 8 8 7 9 8 6 7 7 8 10 5 3 3 3 3 7 6 5 5 4 3 4
7 8 8 7 7 7 7 6 6 7 7 7 7 7 7 7 8 9 8 7 7 7 8 6 5 4 5 6 7 6 4 3 2 3 3 2 4 6
7 7 6 6 6 6 6 6 7 7 6 6 6 6 6 6 7 7 7 7 7 7 7 5 4 4 6 7 7 5 6 6 4 3 1 6 3 1
Wind_Direction
240 241 235 243 234 223 200 181 182 262 287 284 298 309 313 301 297 291 271 262 259 253 245 242 242 244 243 239 233 229 224 219 217 216 215 215 216 218
235 239 243 242 245 237 222 207 186 193 243 263 263 280 302 308 300 288 274 274 266 260 253 246 244 244 244 242 237 231 226 220 217 215 214 213 213 214
246 238 243 241 238 241 235 228 219 196 238 267 258 277 293 298 304 295 280 270 267 263 259 253 248 246 245 243 239 234 228 223 220 217 214 212 211 212
238 238 245 244 237 237 233 234 233 220 222 262 275 280 280 285 288 293 287 279 267 268 262 256 251 248 245 243 240 235 231 226 222 219 216 213 212 212
229 230 237 235 241 240 236 236 236 239 218 234 261 263 273 283 299 299 294 289 285 278 267 259 254 250 247 244 240 236 232 228 225 221 217 215 213 212
229 228 231 227 232 236 239 236 234 238 234 238 255 264 268 278 290 297 308 308 300 295 283 275 266 260 253 247 240 236 231 228 226 223 219 217 215 213
234 234 234 238 238 234 234 229 226 226 228 234 249 263 268 277 270 265 283 298 296 280 301 298 290 277 265 253 245 238 232 227 224 222 220 217 216 215
232 239 246 252 254 254 253 246 226 220 223 225 236 241 253 248 248 251 264 292 296 287 311 295 285 275 266 251 247 242 236 230 225 222 220 219 217 217
225 233 248 251 252 252 263 270 259 243 227 218 227 237 243 237 234 252 246 241 247 258 282 281 276 273 268 260 250 246 239 233 226 223 221 220 219 218
226 226 233 249 253 246 252 261 258 254 241 229 225 234 235 233 223 232 242 251 257 258 230 261 269 266 268 265 256 246 242 236 230 225 223 221 220 220
233 231 230 241 251 250 247 252 259 260 254 240 231 235 239 241 232 227 241 247 267 267 223 230 256 264 264 260 256 247 241 239 235 229 227 224 222 220
238 237 236 240 250 252 239 237 248 255 252 254 245 248 247 249 243 222 219 228 243 261 237 214 242 247 278 266 255 251 245 244 242 234 228 224 217 216
235 237 236 236 242 249 240 228 238 244 241 236 242 250 251 245 241 228 217 218 225 238 234 202 226 227 247 286 287 255 239 242 238 236 229 223 215 210
232 234 233 234 237 242 239 234 243 247 235 235 242 247 247 248 245 238 232 228 229 236 236 206 215 223 233 255 267 269 251 236 235 241 230 218 218 218
233 231 229 234 237 243 244 245 245 232 222 233 243 247 242 242 245 248 251 242 242 243 241 219 215 223 218 232 247 251 259 250 225 232 230 219 212 203
233 236 237 242 241 241 246 248 234 223 221 234 242 248 245 239 241 237 245 247 250 260 246 227 219 217 226 230 234 246 233 239 235 224 230 229 219 209
190 200 215 226 235 240 242 242 237 229 231 237 240 245 244 242 246 235 231 234 234 248 260 252 227 220 219 214 226 237 236 235 233 224 225 234 226 213
166 204 221 226 235 241 243 245 237 232 232 232 233 236 239 240 245 238 225 227 237 242 242 240 225 223 235 240 218 229 233 230 224 217 220 229 229 209
186 218 227 232 237 239 241 242 243 238 230 228 231 233 234 236 237 238 233 230 236 239 238 226 209 206 227 246 241 212 216 219 212 217 219 222 223 206
214 224 230 232 234 237 241 242 244 242 232 230 231 232 231 232 234 235 231 228 233 235 238 227 213 210 218 228 230 226 208 206 209 219 213 203 201 161
218 226 231 233 233 235 238 240 241 242 238 231 229 229 228 226 232 234 231 231 227 228 232 234 229 221 216 195 221 236 221 209 208 208 192 184 182 177
223 227 231 232 232 234 237 241 243 243 241 237 234 231 227 224 229 232 230 227 225 225 231 237 225 202 191 207 225 226 210 190 177 118 90 127 185 189
225 227 230 233 236 236 238 241 242 244 240 236 233 231 227 225 227 229 230 228 227 227 226 226 214 203 208 211 217 213 197 187 178 165 66 11 353 152